Simultaneous Nadir Overpasses (SNOs) Predictions

Prediction of SNOs between NOAA-19 and TERRA Satellite Orbit:

Table of predicted SNOs for the next 14.0 days since TLE Epoch: 6/10/2023
Index Date (NOAA-19) Time (NOAA-19) Lat,Lon (NOAA-19) SZA (NOAA-19 ) Date (TERRA) Time (TERRA) Lat,Lon (TERRA) SZA (TERRA ) Distance(km) Time Diff (sec)
1 06/10/2023 18:06:35 80.91, -58.09 59.48 06/10/2023 18:07:16 80.92, -58.13 59.49 0.95 41
2 06/10/2023 18:57:33 -80.91, 109.42 120.51 06/10/2023 18:56:39 -80.90, 109.37 120.54 1.40 54
3 06/12/2023 21:57:05 -80.91, 64.20 120.69 06/12/2023 21:57:34 -80.92, 64.30 120.67 2.06 29
4 06/12/2023 22:48:05 80.91,-128.20 59.34 06/12/2023 22:46:56 80.91,-128.13 59.32 1.31 69
5 06/15/2023 01:47:37 80.91,-173.28 59.20 06/15/2023 01:47:51 80.91,-173.36 59.20 1.33 14
6 06/17/2023 05:38:06 -80.91, -51.09 120.91 06/17/2023 05:38:09 -80.90, -51.07 120.91 0.43 3
7 06/19/2023 09:28:39 80.91, 71.30 59.03 06/19/2023 09:28:25 80.90, 71.30 59.02 0.51 14
8 06/21/2023 12:28:11 80.90, 26.05 58.97 06/21/2023 12:29:19 80.90, 26.09 59.00 0.92 68
9 06/21/2023 13:19:06 -80.91,-166.20 120.99 06/21/2023 13:18:42 -80.91,-166.21 121.00 0.27 24
10 06/23/2023 16:18:38 -80.90, 148.36 121.04 06/23/2023 16:19:36 -80.90, 148.50 121.00 2.56 58



Historial Predications of SNOs between NOAA-19 and TERRA
